Location: Namasale
(1.5000°N, 32.6167°E)
Time: 22:44:44
(UTC+00:00)

Vanguard 3 - Pass Details

Date: 07 December 2021
Orbit: 508 x 3260 km, 33.3° (Epoch: 27 January)

Event Time Altitude Azimuth Distance (km) Brightness Sun altitude
Exits shadow 23:43:03 20° 27° (NNE) 5,324 11.1 -53.6°
Drops below altitude 10° 23:48:16 10° 37° (NE) 6,160 11.6 -52.6°
Sets 23:53:36 0° 44° (NE) 7,059 12.0 -51.5°
